Regional Weather Roundup
Issued by NWS

Home | Current Version | Previous Version | Text Only | Print | Product List | Glossary Off
Versions: 1 2 3 4 5 6 7 8 9 10 11 12 13 14 15 16 17 18 19 20 21 22 23 24 25 26 27 28 29 30 31 32 33 34 35 36 37 38 39 40 41 42 43 44 45 46 47 48 49 50

000
ASUS43 KDMX 070507
RWRIA

WEATHER ROUNDUP FOR IOWA
NATIONAL WEATHER SERVICE DES MOINES IA
1200 AM CDT THU MAY 07 2015

NOTE: "FAIR" INDICATES FEW OR NO CLOUDS BELOW 12,000 FEET WITH NO
SIGNIFICANT WEATHER AND/OR OBSTRUCTIONS TO VISIBILITY.

* - THESE STATIONS ARE NOT NWS STATIONS...THUS NOT UNDER NWS
QUALITY CONTROL.  THEY ALSO DO NOT REPORT WEATHER SUCH
AS PRECIPITATION OR FOG.

IAZ001>003-012>014-020>022-031>034-043>046-070600-
   NORTHWEST IOWA

CITY           SKY/WX    TMP DP  RH WIND       PRES   REMARKS
CARROLL *      CLOUDY    66  59  77 SE21      29.78F
CHEROKEE *     RAIN      63  61  94 S16G24    29.75S
DENISON *      CLOUDY    64  64 100 SW9G26    29.76R FOG
LE MARS *      CLOUDY    64  61  88 SE20G32   29.69F
ORANGE CITY *  LGT RAIN  63  59  88 SE16G23   29.70F
SHELDON *      CLOUDY    63 N/A N/A SE18      29.71F
SIOUX CITY     LGT RAIN  63  59  87 SE24G33   29.67F
SPENCER        LGT RAIN  64  60  87 SE22G35   29.75F
STORM LAKE *   CLOUDY    63  59  88 SE22G28   29.76F
$$

IAZ055>058-069>071-079>083-090>094-070600-
   SOUTHWEST IOWA

CITY           SKY/WX    TMP DP  RH WIND       PRES   REMARKS
ATLANTIC *     MOCLDY    70  59  68 SE16G29   29.78S
AUDUBON *      CLEAR     66  61  82 SE14G24   29.79F
CLARINDA *     CLEAR     70  59  68 SE21G29   29.80R
COUNCIL BLFS * CLOUDY    64  64 100 S20G26    29.75S FOG
CRESTON *      CLEAR     68  59  73 SE23G32   29.83F
HARLAN  *      CLOUDY    68  64  88 S17G32    29.79R
LAMONI         CLOUDY    68  58  70 SE10      29.87F
RED OAK *      MOCLDY    70  59  68 SE20G29   29.76F
SHENANDOAH *   PTCLDY    70  59  68 S23G32    29.76S
$$

IAZ047>049-059>061-072>074-084-070600-
   CENTRAL IOWA

CITY           SKY/WX    TMP DP  RH WIND       PRES   REMARKS
AMES           CLEAR     65  57  75 SE13      29.85F
ANKENY *       CLEAR     68  59  73 SE10      29.85F
CHARITON *     CLEAR     66  59  77 SE13      29.89S
DES MOINES     CLOUDY    69  58  67 SE17      29.86F
GRINNELL*      PTCLDY    66  59  77 SE15G22   29.91S
KNOXVILLE *    CLEAR     66  57  72 SE14      29.89S
MARSHALLTOWN   PTCLDY    65  60  84 SE15      29.89F
PELLA *        PTCLDY    66  62  87 SE12      29.91S
PERRY *          N/A     66  59  77 SE16      29.82F
$$

IAZ004>006-015-016-023>025-035-036-070600-
   NORTH CENTRAL IOWA

CITY           SKY/WX    TMP DP  RH WIND       PRES   REMARKS
ALGONA *       MOCLDY    66  59  77 SE18G28   29.82F
CLARION *      PTCLDY    64  59  82 SE17G23   29.84F
ESTHERVILLE    MOCLDY    62  58  86 SE22      29.78F
FORT DODGE *   MOCLDY    66  55  68 SE13G20   29.82F
MASON CITY     PTCLDY    63  60  90 SE15      29.89F
FOREST CITY *  MOCLDY    61  57  88 SE15      29.86F
IOWA FALLS *     N/A     63  57  82 SE10      29.89F
$$

IAZ007>011-017>019-026>030-037>042-050>054-066-070600-
   NORTHEAST IOWA

CITY           SKY/WX    TMP DP  RH WIND       PRES   REMARKS
CEDAR RAPIDS   CLOUDY    64  61  90 SE8       29.94F
CHARLES CITY * MOCLDY    63  63 100 SE15      29.92F
CLINTON *      MOCLDY    64  59  82 E9        30.03R
DECORAH *      MOCLDY    63  59  88 SE8       29.94F
DUBUQUE        CLOUDY    65  59  81 SE9       30.00S
MONTICELLO *   CLOUDY    66  63  88 E8        29.97S
OELWEIN *      CLOUDY    64  59  82 SE12      29.95S
WATERLOO       PTCLDY    65  59  81 SE9       29.91F
$$

IAZ064-065-067-068-078-070600-
   EAST CENTRAL IOWA

CITY           SKY/WX    TMP DP  RH WIND       PRES   REMARKS
DAVENPORT      MOCLDY    67  59  75 SE8       30.00S
IOWA CITY      CLOUDY    65  61  87 SE6       29.97F
MT. PLEASANT * PTCLDY    66  59  77 SE13      29.96S
MUSCATINE *    PTCLDY    68  61  77 SE5       29.97F
QUAD CITIES    MOCLDY    65  59  81 E8        29.99S
$$

IAZ062-063-075>077-085>089-095>099-070600-
   SOUTHEAST IOWA

CITY           SKY/WX    TMP DP  RH WIND       PRES   REMARKS
BURLINGTON     MOCLDY    71  57  61 S12       29.97S
FAIRFIELD *    CLEAR     64  61  88 SE9       29.95R
FORT MADISON * CLEAR     70  55  60 SE10G16   29.98S
KEOKUK *       CLEAR     72  55  56 SE8       29.97R
OSKALOOSA *      N/A     64  61  88 SE13      29.92F
CENTERVILLE *  CLEAR     64  59  82 SE12      29.93F
OTTUMWA        CLEAR     65  61  87 SE12      29.92S
WASHINGTON *   CLEAR     64 N/A N/A SE8       29.95S
$$

ABBREVIATIONS USED IN REMARKS
   TC - TEMPERATURES IN CELSIUS
  WCI - WIND CHILL INDEX
   HX - HEAT INDEX
  VSB - VISIBILITY
$$



USA.gov is the U.S. government's official web portal to all federal, state and local government web resources and services.